Weather in Podolskoye

Russia / Kostroma Oblast     57°30′05″N   41°19′50″E
temp.,
°C
wind,
m/s
gust,
m/s
humid.,
%
clouds,
%
prec.,
mm/h
press.,
hPa
HPBL,
m
12 april, mon
mon1200:00+5se2291100 0.0 103512
03:00+5ese3391100 0.0 103543
06:00+4se3593100 0.0 103799
09:00+8se46825 0.0 1037282
12:00+12se576570 0.0 1036728
15:00+13ese6861100 0.0 1035833
18:00+10ese51076100 0.0 1034578
21:00+8ese61387100 0.0 1033465
13 april, tue
tue1300:00+7se51291100 0.0 1032471
03:00+6se51095100 0.1 1031298
06:00+5se4997100 0.0 1030231
09:00+10sse5880100 0.0 1029302
12:00+15sse6861100 0.0 1027541
15:00+18s6950100 0.0 10261498
18:00+15s4858100 0.0 1025173
21:00+11sse4116891 0.0 1026154
14 april, wed
wed1400:00+9s497390 0.0 1025129
03:00+8s477785 0.0 1025105
06:00+7s487884 0.0 1024127
09:00+13s595736 0.0 1024316
12:00+17s6943100 0.0 1023796
15:00+18s67365 0.0 10211406
18:00+16s375183 0.0 1020153
21:00+11s496479 0.0 1020139
15 april, thu
thu1500:00+9s3871100 0.0 1020128
03:00+8s337498 0.0 101938
06:00+8s2275100 0.0 101914
09:00+12sse2359100 0.0 1019226
12:00+15sse2349100 0.0 1018546
15:00+16ssw1143100 0.0 10171017
18:00+15n3355100 0.0 101659
21:00+9nne5983100 0.0 1018331
16 april, fri
fri1600:00+6nne6108692 0.1 1019410
03:00+5nne61086100 0.1 1020599
06:00+3nne71395100 0.1 1022697
09:00+5ne8116791 0.1 1023959
12:00+8nne8104022 0.0 10241605
15:00+8nne8103414 0.0 10251919
18:00+6nne810430 0.0 10271602
21:00+3nne612470 0.0 1029537